Regional Weather Roundup
Issued by NWS

Home | Current Version | Previous Version | Graphics & Text | Print | Product List | Glossary On
Versions: 1 2 3 4 5 6 7 8 9 10 11 12 13 14 15 16 17 18 19 20 21 22 23 24 25 26 27 28 29 30 31 32 33 34 35 36 37 38 39 40 41 42 43 44 45 46 47 48 49 50
000
ASUS45 KTFX 010904
RWRMT
MONTANA REGIONAL WEATHER ROUNDUP
NATIONAL WEATHER SERVICE GREAT FALLS MT
300 AM MDT TUE SEP 01 2015

NOTE: "FAIR" INDICATES FEW OR NO CLOUDS BELOW 12000 FEET WITH NO
SIGNIFICANT WEATHER AND/OR OBSTRUCTIONS TO VISIBILITY.

MTZ001>007-043-011000-
WEST OF THE DIVIDE

CITY           SKY/WX    TMP DP  RH WIND       PRES   REMARKS
KALISPELL      PTSUNNY   49  42  77 W6        29.88R
MISSOULA       PTCLDY    52  42  69 SE3       29.94S
BUTTE          CLEAR     45  38  76 CALM      30.01F
MULLAN PASS    MOCLDY    46  39  76 VRB7      29.99F
DEER LODGE       N/A     45  37  76 CALM      30.01S
EUREKA           N/A     61  43  51 SE9       29.84F
HAMILTON         N/A     57  41  54 S8        29.94S
LIBBY            N/A     52  45  76 W7        29.86R
$$

MTZ008-052>055-011000-
SOUTHWEST MONTANA

CITY           SKY/WX    TMP DP  RH WIND       PRES   REMARKS
BOZEMAN        CLEAR     44  38  79 SE5       29.94S
DILLON         CLEAR     49  32  52 SE5       29.97S
W YELLOWSTONE  CLEAR     32  27  80 CALM      30.11F
$$

MTZ009-010-012-014-046-048-049-054-011000-
EAST SLOPES AND CENTRAL MONTANA

CITY           SKY/WX    TMP DP  RH WIND       PRES   REMARKS
CUT BANK       CLOUDY    56  38  50 SW17      29.79F
GREAT FALLS    MOCLDY    59  39  47 SW10      29.84F
HELENA         CLEAR     57  39  51 CALM      29.91F
$$

MTZ011-013-016-021-045-047-050-051-011000-
NORTH CENTRAL MONTANA

CITY           SKY/WX    TMP DP  RH WIND       PRES   REMARKS
HAVRE          PTCLDY    50  39  66 SW5       29.78F
LEWISTOWN      CLEAR     49  39  68 S7        29.88F
N BAR RANCH      N/A     46  37  71 W6        29.92F
CHINOOK          N/A     50  39  66 CALM      29.79S
FORT BENTON      N/A     55  37  50 S3        29.81F
$$

MTZ017>020-022>027-061-062-011000-
NORTHEAST MONTANA

CITY           SKY/WX    TMP DP  RH WIND       PRES   REMARKS
GLASGOW        PTCLDY    55  45  68 E8        29.80F
JORDAN           N/A     46  35  65 NW3       29.83F
SIDNEY         CLEAR     48  41  76 CALM      29.83F
WOLF POINT     CLEAR     48  42  80 CALM      29.81F
PLENTYWOOD       N/A     55  39  54 NE6       29.82F
POPLAR           N/A     48  39  71 N3        29.82F
$$

MTZ028>42-056>058-011000-
SOUTHCENTRAL AND SOUTHEAST MONTANA

CITY           SKY/WX    TMP DP  RH WIND       PRES   REMARKS
BAKER          CLEAR     59  52  77 SE9       29.88F
BILLINGS       CLEAR     61  37  41 SW6       29.87S
LIVINGSTON     CLEAR     65  30  27 NW13      29.91F
MILES CITY     CLEAR     58  42  55 CALM      29.83F
FORSYTH          N/A     57  39  51 NE5       29.82F
$$

REGIONAL REPORTS...DAKOTAS

CITY           SKY/WX    TMP DP  RH WIND       PRES   REMARKS
WILLISTON      CLEAR     49  44  83 SW5       29.84S
MINOT          CLEAR     60  48  64 SW10      29.83F
DICKINSON      CLEAR     54  47  77 S9        29.86S
BISMARCK       CLEAR     55  51  86 NE7       29.88S
GRAND FORKS    PTCLDY    54  51  90 S3        29.85S
FARGO          PTCLDY    58  55  90 S5        29.87S
BUFFALO SD       N/A     60  53  77 S5        29.85S
RAPID CITY     CLEAR     56  55  97 SE9       29.89F
$$

REGIONAL REPORTS...WYOMING/IDAHO/WASHINGTON

CITY           SKY/WX    TMP DP  RH WIND       PRES   REMARKS
GILLETTE       CLEAR     58  48  69 CALM      29.93S
SHERIDAN       CLEAR     49  42  77 S3        29.91S
BUFFALO WY     CLEAR     60  38  43 W8        29.97F
CODY           CLEAR     57  27  30 CALM      29.97S
YELLOWSTONE LA   N/A     34  27  75 CALM      30.21S
IDAHO FALLS    CLEAR     52  35  52 SW8       30.01S
SALMON         CLEAR     48  37  66 CALM      29.95R
BOISE          CLEAR     63  38  39 CALM      29.90S
SPOKANE        MOCLDY    57  45  64 S9        29.88R
$$

REGIONAL REPORTS...ALBERTA

CITY           SKY/WX    TMP DP  RH WIND       PRES   REMARKS
LETHBRIDGE     CLEAR     46  39  76 S18       29.71F
$$

REGIONAL REPORTS...SASKATCHEWAN

CITY           SKY/WX    TMP DP  RH WIND       PRES   REMARKS
$$



USA.gov is the U.S. government's official web portal to all federal, state and local government web resources and services.